KB6OQJ Weather Reports


Display with metric or nautical units.
time (UTC)temp
F
wind
direction
speed
MPH
gust
MPH
rain 1hr
in
rain 24hr
in
rain mn
in
humidity
%
barometer
mb
20260507223004 79 310 10.0 15.0 0.00 0.00 0.00 53 889.5
20260507222004 80 306 7.0 14.0 0.00 0.00 0.00 53 889.5
20260507221004 80 315 5.0 14.0 0.00 0.00 0.00 53 889.5
20260507220003 80 303 8.0 13.0 0.00 0.00 0.00 53 889.5
20260507215004 81 314 5.0 15.0 0.00 0.00 0.00 52 889.5
20260507213003 81 301 4.0 16.0 0.00 0.00 0.00 52 889.5
20260507212004 82 303 7.0 18.0 0.00 0.00 0.00 50 889.5
20260507211004 83 331 3.0 14.0 0.00 0.00 0.00 50 889.5
20260507210003 83 308 5.0 15.0 0.00 0.00 0.00 49 889.5
20260507205004 83 297 6.0 12.0 0.00 0.00 0.00 49 889.5
20260507204004 83 285 4.0 12.0 0.00 0.00 0.00 49 889.5
20260507203004 83 272 3.0 12.0 0.00 0.00 0.00 49 889.5
20260507202004 83 278 3.0 10.0 0.00 0.00 0.00 50 889.5
20260507201003 82 286 3.0 10.0 0.00 0.00 0.00 51 889.5
20260507200004 81 258 2.0 8.0 0.00 0.00 0.00 51 889.5
20260507195004 81 222 1.0 9.0 0.00 0.00 0.00 51 889.5
20260507194004 81 263 2.0 6.0 0.00 0.00 0.00 51 889.5
20260507193004 80 250 2.0 6.0 0.00 0.00 0.00 51 889.5
20260507191003 77 209 0.0 6.0 0.00 0.00 0.00 54 889.5
20260507190005 76 300 0.0 3.0 0.00 0.00 0.00 57 889.5
20260507185004 75 210 0.0 5.0 0.00 0.00 0.00 58 889.5
20260507184004 74 267 1.0 5.0 0.00 0.00 0.00 60 889.5
20260507183003 73 277 0.0 3.0 0.00 0.00 0.00 60 889.5
20260507182004 71 239 0.0 6.0 0.00 0.00 0.00 61 889.5
20260507181004 70 271 1.0 3.0 0.00 0.00 0.00 61 889.5
20260507180004 69 263 1.0 3.0 0.00 0.00 0.00 60 889.5
20260507175004 68 301 1.0 3.0 0.00 0.00 0.00 58 889.5
20260507174004 67 256 2.0 6.0 0.00 0.00 0.00 52 889.5
20260507173004 65 257 0.0 2.0 0.00 0.00 0.00 39 889.5
20260507172003 63 283 0.0 1.0 0.00 0.00 0.00 21 889.5
20260507171004 61 273 0.0 3.0 0.00 0.00 0.00 3 825.4
20260507164004 57 292 0.0 0.0 0.00 0.00 0.00 3 825.4
20260507162004 55 115 0.0 0.0 0.00 0.00 0.00 3 825.4
20260507161004 54 103 0.0 0.0 0.00 0.00 0.00 3 825.4
20260507155004 53 83 0.0 0.0 0.00 0.00 0.00 3 825.4
20260507154004 53 80 0.0 0.0 0.00 0.00 0.00 3 825.4
20260507152003 53 79 0.0 0.0 0.00 0.00 0.00 3 825.4
20260507151004 53 79 0.0 0.0 0.00 0.00 0.00 3 825.4
20260507150004 52 79 0.0 0.0 0.00 0.00 0.00 3 825.4
20260507145004 52 79 0.0 0.0 0.00 0.00 0.00 3 825.4
20260507143004 52 80 0.0 0.0 0.00 0.00 0.00 3 825.4
20260507142004 52 79 0.0 0.0 0.00 0.00 0.00 3 825.4
20260507141003 52 79 0.0 0.0 0.00 0.00 0.00 3 825.4
20260507140004 52 79 0.0 0.0 0.00 0.00 0.00 3 825.4
20260507135004 52 79 0.0 0.0 0.00 0.00 0.00 3 825.4
20260507134004 52 79 0.0 0.0 0.00 0.00 0.00 3 825.4
20260507133004 52 79 0.0 0.0 0.00 0.00 0.00 3 825.4
20260507132004 52 79 0.0 0.0 0.00 0.00 0.00 3 825.4
20260507131004 53 79 0.0 0.0 0.00 0.00 0.00 3 825.4
20260507125004 53 79 0.0 0.0 0.00 0.00 0.00 3 825.4
20260507124004 53 79 0.0 0.0 0.00 0.00 0.00 3 825.4
20260507123004 53 79 0.0 0.0 0.00 0.00 0.00 3 825.4
20260507122005 53 79 0.0 0.0 0.00 0.00 0.00 3 890.1
20260507121003 53 78 0.0 0.0 0.00 0.00 0.00 3 890.1
20260507120005 53 78 0.0 0.0 0.00 0.00 0.00 3 890.1
20260507115004 53 78 0.0 0.0 0.00 0.00 0.00 3 890.1
20260507114004 53 78 0.0 0.0 0.00 0.00 0.00 3 890.1
20260507113004 53 78 0.0 0.0 0.00 0.00 0.00 3 890.1
20260507112004 53 78 0.0 0.0 0.00 0.00 0.00 3 890.1
20260507111003 53 78 0.0 0.0 0.00 0.00 0.00 3 890.1
20260507110003 53 77 0.0 0.0 0.00 0.00 0.00 3 890.1
20260507105004 53 77 0.0 0.0 0.00 0.00 0.00 3 890.1
20260507104004 54 77 0.0 0.0 0.00 0.00 0.00 3 890.1
20260507103003 54 77 0.0 0.0 0.00 0.00 0.00 3 890.1
20260507102006 54 76 0.0 0.0 0.00 0.00 0.00 3 890.1
20260507101004 54 77 0.0 0.0 0.00 0.00 0.00 3 890.1
20260507095004 53 77 0.0 0.0 0.00 0.00 0.00 3 890.1
20260507094004 53 77 0.0 0.0 0.00 0.00 0.00 3 890.1
20260507093004 54 77 0.0 0.0 0.00 0.00 0.00 3 890.1
20260507092004 54 77 0.0 0.0 0.00 0.00 0.00 3 890.1
20260507091003 54 77 0.0 0.0 0.00 0.00 0.00 3 890.1
20260507090005 54 77 0.0 0.0 0.00 0.00 0.00 3 890.1
20260507085003 54 77 0.0 0.0 0.00 0.00 0.00 3 890.1
20260507084003 55 77 0.0 0.0 0.00 0.00 0.00 3 890.1
20260507082004 55 315 0.0 0.0 0.00 0.00 0.00 4 890.1
20260507081004 55 315 0.0 0.0 0.00 0.00 0.00 5 890.1
20260507075004 55 315 0.0 0.0 0.00 0.00 0.00 7 890.1
20260507074003 55 315 0.0 0.0 0.00 0.00 0.00 9 890.1
20260507073004 55 315 0.0 0.0 0.00 0.00 0.00 10 890.1
20260507072004 55 315 0.0 0.0 0.00 0.00 0.00 14 890.1
20260507071004 55 315 0.0 0.0 0.00 0.00 0.00 16 890.1
20260507070008 55 315 0.0 0.0 0.00 0.00 0.00 18 890.1
20260507065003 56 315 0.0 0.0 0.00 0.00 0.00 20 890.1
20260507064004 56 317 0.0 0.0 0.00 0.00 0.00 23 890.1
20260507063004 56 292 0.0 0.0 0.00 0.00 0.00 29 890.1
20260507062004 56 292 0.0 0.0 0.00 0.00 0.00 37 890.1
20260507061004 56 281 0.0 0.0 0.00 0.00 0.00 41 890.1
20260507060004 56 281 0.0 0.0 0.00 0.00 0.00 44 890.1
20260507055003 56 281 0.0 0.0 0.00 0.00 0.00 45 890.1
20260507054004 56 281 0.0 0.0 0.00 0.00 0.00 46 890.1
20260507052003 57 281 0.0 0.0 0.00 0.00 0.00 46 890.1
20260507051004 57 281 0.0 0.0 0.00 0.00 0.00 46 890.1
20260507045004 58 281 0.0 0.0 0.00 0.00 0.00 46 890.1
20260507044004 58 281 0.0 0.0 0.00 0.00 0.00 48 890.1
20260507043004 59 279 0.0 0.0 0.00 0.00 0.00 51 890.1
20260507042004 59 270 0.0 3.0 0.00 0.00 0.00 54 890.1
20260507041004 59 279 0.0 2.0 0.00 0.00 0.00 57 890.1
20260507040004 60 317 0.0 3.0 0.00 0.00 0.00 60 890.1
20260507035004 60 295 0.0 1.0 0.00 0.00 0.00 61 871.3
20260507034003 61 284 0.0 2.0 0.00 0.00 0.00 63 871.7
20260507033004 61 257 0.0 3.0 0.00 0.00 0.00 64 871.7
20260507032004 62 290 0.0 1.0 0.00 0.00 0.00 64 871.7
20260507031004 62 296 0.0 3.0 0.00 0.00 0.00 65 871.7
20260507030004 63 285 0.0 0.0 0.00 0.00 0.00 65 871.7
20260507025004 63 268 0.0 3.0 0.00 0.00 0.00 65 880.6
20260507024004 64 277 0.0 8.0 0.00 0.00 0.00 65 881.5
20260507022004 65 271 0.0 7.0 0.00 0.00 0.00 64 918.2
20260507021003 66 292 1.0 10.0 0.00 0.00 0.00 64 918.2
20260507020003 67 280 2.0 12.0 0.00 0.00 0.00 64 918.2
20260507015004 68 275 2.0 13.0 0.00 0.00 0.00 63 918.2
20260507014004 68 304 1.0 9.0 0.00 0.00 0.00 62 918.2
20260507012004 70 283 1.0 13.0 0.00 0.00 0.00 60 918.2
20260507011003 71 279 2.0 13.0 0.00 0.00 0.00 60 918.2
20260507010004 71 268 3.0 14.0 0.00 0.00 0.00 59 918.2
20260507005004 71 288 4.0 14.0 0.00 0.00 0.00 59 918.2
20260507004004 72 265 5.0 13.0 0.00 0.00 0.00 58 951.0
20260507003004 72 292 6.0 13.0 0.00 0.00 0.00 58 951.0
20260507001004 73 275 6.0 15.0 0.00 0.00 0.00 57 951.0
20260507000004 73 267 6.0 18.0 0.00 0.00 0.00 56 951.0
20260506235003 74 274 7.0 20.0 0.00 0.00 0.00 55 951.0
20260506234004 75 271 9.0 18.0 0.00 0.00 0.00 54 951.0
20260506232004 76 280 7.0 15.0 0.00 0.00 0.00 53 951.0
20260506231003 76 275 7.0 20.0 0.00 0.00 0.00 52 951.0
20260506230004 76 288 9.0 18.0 0.00 0.00 0.00 52 951.0
20260506225004 77 272 8.0 16.0 0.00 0.00 0.00 52 951.0
20260506224003 77 300 4.0 17.0 0.00 0.00 0.00 51 951.0